Starlink 2657

operational
NORAD ID: 48655 Int'l Des: 2021-044 Owner: SPXS Country: US Constellation: starlink
LEOCIRCULARSTARLINK_TYPE

Über Starlink 2657

Beschreibung wird geladen...

Live-Position

3D-Globus wird geladen...

Nächste Überflüge

Höhenverlauf

Altitude vs Time

uPlot chart will show altitude changes over time

Zweizeiliger Elementsatz

1 48655U 21044T 25305.49002222 .00000148 00000-0 28807-4 0 9997
2 48655 53.0559 337.1271 0001465 88.9781 271.1376 15.06387832244389
Epoch: 1. Nov. 2025 • Age: 10 hours

Aktueller Status

Höhe 547.4 km
Geschwindigkeit 7.59 km/s
Subsatellitenpunkt 6.28°N, 137.9°E
Startdatum 26. Mai 2021
Alter 4.4 years
Typ internet

Technische Details

Klassifizierung Payload
Masse 260.00 kg
Trockenmasse 248.00 kg
Gesamtmasse 260.00 kg
Länge 0.20 m
Durchmesser 2.80 m
Spannweite 9.00 m
Form Box + pan
Hersteller SPXS
Bus-Typ Starlink
Phasenstatus In Orbit
Besitzer/Staat SPXS/US

Große Konstellationen

Loading constellations...